Home > Weather > Nome > Past weeks

Flag for USA Past Weather in Nome, Alaska, USA — Yesterday and Last 2 Weeks

Now
39 °F

Fog.


Feels Like: 33 °F
Forecast: 38 / 42 °F
Wind: 8 mph from Southwest

Location: Nome Airport

Current Time: May 26, 2016 at 10:34:54 AM

Latest Report: May 26, 2016 at 10:00 AM


Visibility: 5 mi

Pressure: 30.28 "Hg

Humidity: 96%

Dew Point: 38 °F

Location of NomeLocation

Past Weather in Nome — Graph

°F

Nome Temperature Yesterday

Maximum temperature yesterday: 38 °F (at 4:53 PM)
Minimum temperature yesterday: 36 °F (at 12:53 AM)
Average temperature yesterday: 37 °F

High & Low Weather Summary for the Past Weeks

 TemperatureHumidityPressure
High56 °F (May 17, 10:53 AM)100% (May 11, 1:55 PM)30.52 "Hg (May 11, 1:55 PM)
Low29 °F (May 13, 6:53 AM)32% (May 17, 10:53 AM)29.52 "Hg (May 21, 4:53 AM)
Average41 °F79%29.99 "Hg
* Reported May 11 8:53 AM — May 26 8:53 AM, Nome, Weather by CustomWeather, © 2016

Note: Actual official high and low records may vary slightly from our data, if they occured in-between our weather recording intervals... More about our weather records

Advertising

Nome Weather History for the Previous 24 Hours

Scroll right to see more
 ConditionsComfort  
Time TempWeatherWind HumidityBarometerVisibility
8:53 AM
Thu, May 26
38 °FFog.9 mph97%30.26 "Hg4 mi
8:00 AM38 °FLow clouds.10 mph100%30.24 "Hg10 mi
6:53 AM38 °FFog.8 mph100%30.23 "Hg5 mi
5:53 AM38 °FLow clouds.12 mph100%30.23 "Hg8 mi
4:53 AM38 °FLow clouds.10 mph100%30.22 "Hg7 mi
4:00 AM38 °FFog.12 mph100%30.22 "Hg1 mi
2:53 AM38 °FLow clouds.10 mph100%30.20 "Hg10 mi
1:53 AM38 °FLight rain. Fog.10 mph100%30.20 "Hg6 mi
12:53 AM39 °FLight rain. Low clouds.10 mph96%30.19 "Hg7 mi
11:53 PM
Wed, May 25
38 °FLight rain. Fog.8 mph97%30.17 "Hg5 mi
10:53 PM38 °FLight rain. Low clouds.7 mph97%30.17 "Hg9 mi
10:03 PM38 °FLight rain. Fog.9 mph100%30.17 "Hg2 mi
9:53 PM38 °FLight rain. Fog.8 mph100%30.16 "Hg1 mi
8:53 PM38 °FLow clouds.9 mph97%30.16 "Hg9 mi
7:53 PM38 °FFog.10 mph100%30.14 "Hg4 mi
6:57 PM38 °FFog.9 mph100%30.14 "Hg4 mi
5:53 PM38 °FLow clouds.8 mph97%30.13 "Hg10 mi
4:53 PM38 °FFog.8 mph97%30.13 "Hg3 mi
3:53 PM37 °FFog.7 mph100%30.12 "Hg2 mi
2:53 PM37 °FLight rain. Low clouds.8 mph96%30.11 "Hg10 mi
1:53 PM37 °FLight rain. Low clouds.9 mph93%30.10 "Hg10 mi
1:00 PM37 °FLight rain. Low clouds.10 mph96%30.09 "Hg8 mi
11:53 AM37 °FLight rain. Mostly cloudy.9 mph96%30.08 "Hg8 mi
10:53 AM37 °FLight rain. Fog.12 mph93%30.07 "Hg5 mi
Weather by CustomWeather, © 2016

See weather overviewHow to use our weather pages